User: anonymous   Login
Location: Stonelick Lake State Park
(39.2170°N, 84.0850°W)
Time: 10:49:45
(UTC-04:00)
Language:

Abrixas rocket - Orbit

View from above orbital plane
View from above orbital plane
View from above satellite
View from above satellite

Ground track
Ground track

The orbit data is extracted from the following two-line orbital elements,

1 25723U 99022C   15244.45702678  .00006564  00000-0  15866-3 0  9996
2 25723  48.4211  30.6449 0012978 145.5731 256.1619 15.42219926905005
Epoch (UTC): 01 September 2015 10:58:07
Eccentricity: 0.0012978
inclination: 48.4211°
perigee height: 431 km
apogee height: 448 km
right ascension of ascending node: 30.6449°
argument of perigee: 145.5731°
revolutions per day: 15.42219926
mean anomaly at epoch: 256.1619°
orbit number at epoch: 90500

The dashed part of the orbit path shows where the satellite is in the earth's shadow,  

DLR